This demonstration page uses our WeatherBlox Daily Observations layout. Learn more.

Left ArrowRight Arrow

34.02893, -84.19858

Hourly Observations for September 26, 2022

Temp ( °F °C ) Dew Point ( °F °C ) Humidity (%) Winds ( mph kmh ) Pressure ( in mb ) Visibility ( mi km ) Precip ( " mm )
12:53 am 00:53 Clear 66 18.9 63 17.2 90 90 W 5 7 29.91 1013 10 16 0.00 0.00
1:53 am 01:53 Mostly Clear 65 18.3 63 17.2 93 93 WSW 5 7 29.89 1012 10 16 0.00 0.00
2:15 am 02:15 Mostly Cloudy 66 18.9 64 17.8 93 93 Calm 29.90 1012 10 16 0.00 0.00
2:29 am 02:29 Partly Cloudy 66 18.9 64 17.8 93 93 W 3 6 29.90 1012 10 16 0.00 0.00
2:36 am 02:36 Mostly Cloudy 66 18.9 64 17.8 93 93 W 3 6 29.90 1012 10 16 0.00 0.00
2:46 am 02:46 Mostly Clear 66 18.9 64 17.8 93 93 W 6 9 29.90 1012 10 16 0.00 0.00
2:53 am 02:53 Mostly Clear 66 18.9 64 17.8 93 93 W 6 9 29.88 1012 10 16 0.00 0.00
3:53 am 03:53 Clear 64 17.8 63 17.2 96 96 WSW 5 7 29.88 1012 10 16 0.00 0.00
4:53 am 04:53 Mostly Clear 63 17.2 63 17.2 100 100 WSW 3 6 29.88 1012 8 13 0.00 0.00
5:03 am 05:03 Mostly Cloudy 62 16.7 62 16.7 100 100 Calm 29.91 1013 8 13 0.00 0.00
5:30 am 05:30 Partly Cloudy with Mist and Fog 62 16.7 62 16.7 100 100 Calm 29.91 1013 6 10 0.00 0.00
5:46 am 05:46 Mostly Cloudy with Mist and Fog 61 16.1 61 16.1 100 100 NW 3 6 29.91 1013 5 8 0.00 0.00
5:53 am 05:53 Mostly Cloudy 63 17.2 63 17.2 100 100 NW 3 6 29.88 1012 7 11 0.00 0.00
6:16 am 06:16 Partly Cloudy 63 17.2 63 17.2 100 100 Calm 29.90 1013 7 11 0.00 0.00
6:53 am 06:53 Clear with Mist and Fog 60 15.6 60 15.6 100 100 NNW 3 6 29.90 1012 3 5 0.00 0.00
7:53 am 07:53 Sunny 59 15 59 15 100 100 Calm 29.92 1013 10 16 0.00 0.00
8:53 am 08:53 Sunny 66 18.9 61 16.1 84 84 NNW 3 6 29.93 1014 10 16 0.00 0.00
9:53 am 09:53 Sunny 70 21.1 57 13.9 63 63 NW 8 13 29.94 1014 10 16 0.00 0.00
10:53 am 10:53 Sunny 72 22.2 54 12.2 53 53 WNW 10 17 29.96 1014 10 16 0.00 0.00
11:53 am 11:53 Sunny 75 23.9 52 11.1 45 45 NNW 13 20 29.95 1014 10 16 0.00 0.00
12:53 pm 12:53 Sunny 75 23.9 50 10 41 41 NNW 12 19 29.93 1013 10 16 0.00 0.00
1:53 pm 13:53 Sunny 77 25 46 7.8 33 33 VRB 6 9 29.91 1013 10 16 0.00 0.00
2:53 pm 14:53 Sunny 78 25.6 46 7.8 32 32 W 12 19 29.88 1012 10 16 0.00 0.00
3:53 pm 15:53 Sunny 78 25.6 45 7.2 31 31 WNW 15 24 29.87 1012 10 16 0.00 0.00
4:53 pm 16:53 Sunny 78 25.6 47 8.3 33 33 N 14 22 29.87 1011 10 16 0.00 0.00
5:53 pm 17:53 Sunny 77 25 45 7.2 32 32 NW 10 17 29.88 1012 10 16 0.00 0.00
6:53 pm 18:53 Sunny 74 23.3 44 6.7 34 34 NNW 8 13 29.89 1012 10 16 0.00 0.00
7:53 pm 19:53 Clear 69 20.6 47 8.3 45 45 NNW 9 15 29.91 1013 10 16 0.00 0.00
8:53 pm 20:53 Clear 66 18.9 48 8.9 52 52 NNW 5 7 29.93 1014 10 16 0.00 0.00
9:53 pm 21:53 Clear 62 16.7 49 9.4 62 62 NNW 3 6 29.95 1014 10 16 0.00 0.00
10:53 pm 22:53 Clear 62 16.7 48 8.9 60 60 NNW 8 13 29.96 1014 10 16 0.00 0.00
11:53 pm 23:53 Clear 60 15.6 47 8.3 62 62 NNW 3 6 29.97 1015 10 16 0.00 0.00

Powered by AerisWeather